Zurück zum Katalog

CZ-6A DEB

AktivSSO
NORAD 54409·DEBRIS·🇨🇳 China

Gestartet Nov 11, 2022 von Taiyuan Satellite Launch Center

Loading…

Nächste Überflüge (nächste 24 Stunden)

TLE

AktuellSource: Space-Track

Epoche: Sep 14, 2026, 10:35 UTC

1 54409U 22151EH  26257.44149715  .00001744  00000-0  72076-3 0  9991
2 54409  98.7552 258.2352 0134002 299.7995  58.9913 14.23257866198341

Verfolge CZ-6A DEB in Echtzeit mit AllMySat

Download on the App Store